Regional Weather Roundup
Issued by NWS

Home | Current Version | Previous Version | Graphics & Text | Print | Product List | Glossary On
Versions: 1 2 3 4 5 6 7 8 9 10 11 12 13 14 15 16 17 18 19 20 21 22 23 24 25 26 27 28 29 30 31 32 33 34 35 36 37 38 39 40 41 42 43 44 45 46 47 48 49 50
000
ASUS43 KOAX 030502
RWRNE

WEATHER ROUNDUP FOR NEBRASKA
NATIONAL WEATHER SERVICE OMAHA NE
1200 AM CDT FRI JUL 03 2015

NOTES: SATELLITE DATA IS BEING USED TO AUGMENT CLOUD COVER ABOVE
       12000 FEET.
       "FAIR" INDICATES FEW OR NO CLOUDS BELOW 12,000 FEET WITH NO
       SIGNIFICANT WEATHER AND/OR OBSTRUCTIONS TO VISIBILITY.

  * THESE STATIONS DO NOT REPORT WEATHER SUCH AS RAIN...SNOW OR FOG.

NEZ001>004-019>022-054>056-030600-
NEBRASKA PANHANDLE

CITY           SKY/WX    TMP DP  RH WIND       PRES   REMARKS
SCOTTSBLUFF    MOCLDY    69  61  75 CALM      30.14R
ALLIANCE       CLEAR     62  58  86 CALM      30.12S
CHADRON        MOCLDY    65  61  87 CALM      30.10S
KIMBALL          N/A    N/A N/A N/A MISG        N/A
SIDNEY         CLEAR     62  59  90 S3        30.15S
$$

NEZ057>060-069>072-079>082-030600-
SOUTHWEST NEBRASKA

CITY           SKY/WX    TMP DP  RH WIND       PRES   REMARKS
NORTH PLATTE   CLEAR     65  58  78 CALM      30.06R
IMPERIAL       CLEAR     65  59  81 CALM      30.09R
LEXINGTON      CLEAR     66  63  90 CALM      30.04R
MCCOOK         CLEAR     67  60  78 N5        30.04R
$$

NEZ005>010-023>029-035>040-094-030600-
NORTH CENTRAL NEBRASKA

CITY           SKY/WX    TMP DP  RH WIND       PRES   REMARKS
VALENTINE      MOCLDY    66  61  84 CALM      30.04S
AINSWORTH      CLEAR     63  62  97 CALM      30.03F
BROKEN BOW     CLEAR     63  61  93 CALM      30.04R
O`NEILL        CLOUDY    65  64  96 CALM      30.03S FOG
ORD            MOCLDY    64  62  93 CALM      30.01R
$$

NEZ041-046>049-061>064-073>077-083>087-030600-
SOUTH CENTRAL NEBRASKA

CITY           SKY/WX    TMP DP  RH WIND       PRES   REMARKS
GRAND ISLAND   CLOUDY    66  64  93 NE7       30.00S
AURORA         CLOUDY    67  67 100 NE6       29.99S
HASTINGS       MOCLDY    67  63  87 NE8       30.00S
KEARNEY *      CLEAR     64  61  88 N5        30.02R
$$

NEZ011>018-030>034-042>045-030600-
NORTHEAST NEBRASKA

CITY           SKY/WX    TMP DP  RH WIND       PRES   REMARKS
NORFOLK        CLOUDY    64  62  93 NE3       30.01R
BLAIR          CLOUDY    63  58  85 E6        29.98S
COLUMBUS *     CLOUDY    63  59  88 NE3       30.00S
FREMONT        MOCLDY    65  62  89 CALM      29.99R
TEKAMAH        MOCLDY    61  58  90 N3        29.99R
$$

NEZ050>053-065>068-078-088>093-030600-
SOUTHEAST NEBRASKA

CITY           SKY/WX    TMP DP  RH WIND       PRES   REMARKS
LINCOLN        CLOUDY    69  64  84 E8        29.97S
OMAHA EPPLEY   CLOUDY    65  57  75 E3        29.99R
FALLS CITY     CLOUDY    68  65  90 E7        29.95S
NEBRASKA CITY  MOCLDY    66  64  91 SE5       29.97S
PLATTSMOUTH    CLOUDY    65  60  83 NE3       29.98R
$$

NEZ044-045-051>053-067-030600-
OMAHA AREA

CITY           SKY/WX    TMP DP  RH WIND       PRES   REMARKS
OMAHA EPPLEY   CLOUDY    65  57  75 E3        29.99R
BLAIR          CLOUDY    63  58  85 E6        29.98S
FREMONT        MOCLDY    65  62  89 CALM      29.99R
MILLARD        MOCLDY    66  60  81 CALM      29.98R
OFFUTT AFB     CLOUDY    65  59  81 NE5       29.97R
PLATTSMOUTH    CLOUDY    65  60  83 NE3       29.98R
WAHOO          CLOUDY    66  63  90 NE5       29.98R
$$



USA.gov is the U.S. government's official web portal to all federal, state and local government web resources and services.